[Iaude] MPEC J94: 2015 RV334 [a=72.40,e=0.52,i=12.1,H=9.6]

mpec at marsden.cfa.harvard.edu mpec at marsden.cfa.harvard.edu
Fri May 7 22:01:12 EDT 2021


M.P.E.C. 2021-J94                                   Issued 2021 May 8, 01:59 UT

     The Minor Planet Electronic Circulars contain information on unusual
         minor planets and routine data on comets.  They are published
    on behalf of Division F of the International Astronomical Union by the
          Minor Planet Center, Smithsonian Astrophysical Observatory,
                          Cambridge, MA 02138, U.S.A.

             Prepared using the Tamkin Foundation Computer Network

                              MPC at CFA.HARVARD.EDU
            URL https://www.minorplanetcenter.net/    ISSN 1523-6714

                                   2015 RV334                                   


Observations:
     K15RX4V RC2015 06 23.60158 00 38 25.535+06 01 01.18         24.4 rVEJ094568
     K15RX4V RC2015 07 14.55012 00 38 47.547+06 06 11.23         24.7 rVEJ094568
     K15RX4V RC2015 07 19.52115 00 38 46.114+06 06 42.62         24.9 rVEJ094568
     K15RX4V RC2015 08 13.48810 00 38 02.005+06 05 20.15         25.1 rVEJ094568
     K15RX4V RC2015 08 13.54153 00 38 01.810+06 05 19.28               VEJ094568
     K15RX4V RC2015 08 13.56200 00 38 01.775+06 05 19.40         24.9 rVEJ094568
     K15RX4V RC2015 08 19.55071 00 37 42.754+06 04 03.53         24.1 rVEJ094568
     K15RX4V RC2015 08 19.59211 00 37 42.644+06 04 02.83               VEJ094568
     K15RX4V RC2015 08 19.62083 00 37 42.524+06 04 02.36         24.5 rVEJ094568
     K15RX4V RC2015 08 20.42524 00 37 39.764+06 03 50.85         24.3 rVEJ094568
     K15RX4V RC2015 08 20.47472 00 37 39.593+06 03 50.08         24.8 rVEJ094568
     K15RX4V RC2015 09 07.57262 00 36 25.528+05 58 04.39         24.8 wVEJ094568
     K15RX4V*RC2015 09 09.40033 00 36 16.979+05 57 21.77               VEJ094568
     K15RX4V RC2015 09 09.44139 00 36 16.772+05 57 20.88               VEJ094568
     K15RX4V RC2015 09 09.48234 00 36 16.586+05 57 19.89               VEJ094568
     K15RX4V RC2015 09 10.50662 00 36 11.729+05 56 55.50         25.1 wVEJ094568
     K15RX4V RC2015 09 18.46733 00 35 32.563+05 53 34.68         25.3 wVEJ094568
     K15RX4V RC2015 10 08.35518 00 33 48.942+05 44 17.11         25.2 wVEJ094568
     K15RX4V RC2015 10 08.40773 00 33 48.677+05 44 15.65         24.9 wVEJ094568
     K15RX4V RC2015 10 09.32476 00 33 43.885+05 43 49.16         25.1 wVEJ094568
     K15RX4V RC2015 11 10.45092 00 31 13.716+05 29 40.03         25.6 wVEJ094568
     K15RX4V RC2015 12 08.24937 00 30 01.450+05 22 47.33         25.3 wVEJ094568
     K15RX4V RC2016 01 01.31185 00 30 02.681+05 23 20.84         25.5 wVEJ094568
     K15RX4V RC2016 01 02.26295 00 30 04.054+05 23 30.45         25.4 wVEJ094568
     K15RX4V RC2016 09 05.50664 00 43 49.226+07 14 45.93         25.3 wVEJ094568
     K15RX4V RC2016 09 06.46082 00 43 44.939+07 14 25.71         25.0 wVEJ094568
     K15RX4V RC2016 09 06.50211 00 43 44.753+07 14 25.04         25.3 wVEJ094568
     K15RX4V RC2016 11 04.27703 00 38 51.377+06 48 06.07         25.5 wVEJ094568
     K15RX4V RC2016 11 04.33644 00 38 51.108+06 48 04.55         25.0 wVEJ094568
     K15RX4V RC2016 12 29.27436 00 37 05.305+06 37 41.00         25.1 wVEJ094568
     K15RX4V RC2017 01 03.24627 00 37 11.227+06 38 18.98         25.8 wVEJ094568
     K15RX4V RC2017 09 16.50002 00 50 18.835+08 26 30.37         24.6 wVEJ094568
     K15RX4V RC2017 09 17.39915 00 50 14.407+08 26 08.61         25.1 wVEJ094568
     K15RX4V RC2017 09 22.45345 00 49 48.974+08 24 02.27         25.2 wVEJ094568

Observer details:
568 Mauna Kea.  Observer .  Measurers E. J. Ashton, J. J. Kavelaars, B. J.
    Gladman.  3.6-m Canada-France-Hawaii Telescope + CCD.

Orbital elements:
2015 RV334                                                                      
Epoch 2021 July 5.0 TT = JDT 2459400.5                  Alexandersen              
M   3.03245              (2000.0)            P               Q                  
n   0.00159993     Peri.   10.12939     +0.97997591     -0.19905167             
a  72.3996016      Node     1.38304     +0.16484250     +0.79676544             
e   0.5195859      Incl.   12.11166     +0.11168779     +0.57056398             
P 616              H    9.69          G   0.15           U   5                  
Residuals in seconds of arc
150623 568  0.2+  0.0     150909 568  0.1-  0.0     160905 568  0.0   0.1-
150714 568  0.1-  0.1-    150909 568  0.2-  0.1+    160906 568  0.0   0.0
150719 568  0.1+  0.0     150909 568  0.0   0.0     160906 568  0.1+  0.3+
150813 568  0.2+  0.0     150910 568  0.0   0.1+    161104 568  0.1+  0.0
150813 568  0.3-  0.3-    150918 568  0.1-  0.2+    161104 568  0.0   0.0
150813 568  0.1+  0.1+    151008 568  0.2-  0.1-    161229 568  0.1-  0.1-
150819 568  0.3-  0.0     151008 568  0.0   0.0     170103 568  0.2-  0.0
150819 568  0.2+  0.1-    151009 568  0.0   0.0     170916 568  0.1+  0.0
150819 568  0.1-  0.2-    151110 568  0.0   0.1+    170917 568  0.1-  0.1-
150820 568  0.1-  0.0     151208 568  0.1-  0.0     170922 568  0.0   0.0
150820 568  0.1-  0.0     160101 568  0.0   0.1+
150907 568  0.4+  0.0     160102 568  0.2+  0.1+

Ephemeris:
2015 RV334               a,e,i = 72.40, 0.52, 12                 q = 34.7818
Date    TT    R. A. (2000) Decl.     Delta      r    Elong.  Phase     V
2021 04 08    01 13 41.1 +12 17 10  35.9848 34.9883     5.5     0.2    25.2
...
2021 04 23    01 15 31.3 +12 29 19  35.9767 34.9917    11.4     0.3    25.3
...
2021 05 01    01 16 28.5 +12 35 49  35.9468 34.9936    18.6     0.5    25.3
...
2021 05 07    01 17 10.0 +12 40 38  35.9133 34.9950    24.1     0.7    25.3
2021 05 08    01 17 16.8 +12 41 26  35.9068 34.9952    25.1     0.7    25.3
2021 05 09    01 17 23.5 +12 42 13  35.9001 34.9954    26.0     0.7    25.3
...
2021 05 15    01 18 03.0 +12 46 55  35.8544 34.9968    31.5     0.9    25.3
...
2021 05 23    01 18 52.5 +12 52 59  35.7802 34.9987    39.0     1.0    25.3
...
2021 06 07    01 20 13.7 +13 03 27  35.6051 35.0022    52.9     1.3    25.4

M. P. C. Staff               (C) Copyright 2021 MPC           M.P.E.C. 2021-J94




More information about the Iaude mailing list